This is the latest recevied weather packets stored in our database for station/object KB3UMW-13. If no packets are shown the sender has not sent any weather packets the latest 10 day(s).
| Time | Temp. | Humidity | Pressure | Rain* | Wind** | Luminosity | Snow |
|---|---|---|---|---|---|---|---|
| 1777993132 | 20° C | 52% | 1012.9 hPa | 0 mm | - | 225 W/m² | - |
| 1777992831 | 20° C | 57% | 1013.2 hPa | 0 mm | - | 581 W/m² | - |
| 1777992528 | 18.89° C | 57% | 1012.9 hPa | 0 mm | - | 460 W/m² | - |
| 1777992227 | 18.89° C | 55% | 1013.1 hPa | 0 mm | - | 223 W/m² | - |
| 1777991923 | 20.56° C | 52% | 1013 hPa | 0 mm | - | 213 W/m² | - |
| 1777991621 | 20° C | 53% | 1012.9 hPa | 0 mm | - | 793 W/m² | - |
| 1777991317 | 20° C | 53% | 1012.8 hPa | 0 mm | - | 199 W/m² | - |
| 1777991009 | 18.89° C | 59% | 1012.9 hPa | 0 mm | - | 247 W/m² | - |
| 1777990706 | 18.33° C | 56% | 1012.5 hPa | 0 mm | - | 233 W/m² | - |
| 1777990404 | 18.33° C | 57% | 1013 hPa | 0 mm | - | 163 W/m² | - |
| 1777989796 | 18.89° C | 54% | 1013 hPa | 0 mm | - | 310 W/m² | - |
| 1777989494 | 18.89° C | 57% | 1012.6 hPa | 0 mm | - | 606 W/m² | - |
| 1777989189 | 18.89° C | 57% | 1012.5 hPa | 0 mm | - | 302 W/m² | - |
| 1777988886 | 19.44° C | 56% | 1012.7 hPa | 0 mm | - | 581 W/m² | - |
| 1777988583 | 19.44° C | 56% | 1012.7 hPa | 0 mm | - | 609 W/m² | - |
| 1777988279 | 20° C | 55% | 1012.7 hPa | 0 mm | - | 550 W/m² | - |
| 1777987976 | 20° C | 56% | 1012.4 hPa | 0 mm | - | 501 W/m² | - |
| 1777987672 | 18.89° C | 58% | 1012.5 hPa | 0 mm | - | 488 W/m² | - |
| 1777987369 | 18.33° C | 59% | 1012.5 hPa | 0 mm | - | 410 W/m² | - |
| 1777987067 | 17.78° C | 58% | 1012.4 hPa | 0 mm | - | 195 W/m² | - |
| 1777986764 | 17.78° C | 58% | 1012.1 hPa | 0 mm | - | 178 W/m² | - |
| 1777986461 | 17.78° C | 61% | 1012.6 hPa | 0 mm | - | 168 W/m² | - |
| 1777986160 | 17.22° C | 64% | 1012.4 hPa | 0 mm | - | 112 W/m² | - |
| 1777985856 | 16.67° C | 67% | 1012.6 hPa | 0 mm | - | 100 W/m² | - |
| 1777985554 | 16.11° C | 65% | 1012.6 hPa | 0 mm | - | 83 W/m² | - |
* Rain latest hour (hover to see other rain measurements)
** Current wind speed in m/s (hover to see current wind gust speed)